AirNav   Pilot Hours Calculator
 
 1055 users online  

3L2 Sky Ranch Airport
Sandy Valley, Nevada, USA

GOING TO SANDY VALLEY?


FAA INFORMATION EFFECTIVE 15 JULY 2021

Location

FAA Identifier: 3L2
Lat/Long: 35-47-34.6000N 115-37-35.1000W
35-47.576667N 115-37.585000W
35.7929444,-115.6264167
(estimated)
Elevation: 2599 ft. / 792.2 m (surveyed)
Variation: 14E (1985)
From city: 2 miles SW of SANDY VALLEY, NV
Time zone: UTC -7 (UTC -8 during Standard Time)
Zip code: 89019

Airport Operations

Airport use: Open to the public
Activation date: 06/1979
Control tower: no
ARTCC: LOS ANGELES CENTER
FSS: RENO FLIGHT SERVICE STATION
NOTAMs facility: RNO (NOTAM-D service available)
Attendance: IREG
Wind indicator: yes
Segmented circle: yes

Airport Communications

CTAF/UNICOM: 123.0

Nearby radio navigation aids

VOR radial/distance  VOR name  Freq  Var
LASr218/28.5LAS VEGAS VORTAC116.9015E
BLDr237/39.0BOULDER CITY VORTAC116.7015E

Airport Services

Parking: hangars and tiedowns

Runway Information

Runway 3/21

Dimensions: 3340 x 45 ft. / 1018 x 14 m
Surface: asphalt, in good condition
Runway edge lights: non-standard
RWY 03/21 RTHL ONLY. RWY EDGES MARKED WITH REFLECTORS.
RUNWAY 3  RUNWAY 21
Traffic pattern: rightleft
Displaced threshold: no180 ft.
DSPLCD THLD MARKED WITH 8 FT WHITE LINE.
Markings: basic, in good conditionbasic, in good condition
Obstructions: none17 ft. road, 200 ft. from runway
+16 FT ROAD, 0-200 FT FROM RWY END, 125 FT R TO OB. +4 FT FENCE, 0-200 FT FROM RWY END, 108 FT R TO OB.

Runway 12/30

Dimensions: 3300 x 105 ft. / 1006 x 32 m
Surface: dirt, in fair condition
Operational restrictions: RY 12/30 THLD NOT MARKED.
RUNWAY 12  RUNWAY 30
Latitude: 35-47.765960N35-47.388083N
Longitude: 115-37.825518W115-37.345095W
Elevation: 2575.0 ft.2575.0 ft.
Traffic pattern: rightleft
Runway heading: 120 magnetic, 134 true300 magnetic, 314 true
Markings: nonenone

Airport Ownership and Management from official FAA records

Ownership: Privately-owned
Owner: SKY RANCH HOMEOWNERS ASSN
838 SARATOGA AVENUE
SANDY VALLEY, NV 89019-8623
Phone 702-723-5018
Manager: STEVE VAN FRANK
838 SARATOGA AVENUE
SANDY VALLEY, NV 89019-8623
Phone 702-420-3559

Airport Operational Statistics

Aircraft based on the field: 86
Single engine airplanes: 72
Multi engine airplanes: 5
Helicopters: 2
Gliders airplanes: 2
Ultralights: 5
    
Aircraft operations: avg 80/week *
77% local general aviation
17% transient general aviation
4% military
1% air taxi
* for 12-month period ending 30 September 2019

Additional Remarks

AVOID NOISE SENSITIVE RESIDENTIAL AREA 1.5 MILES NW OF ARPT.
LOW FLYING MILITARY AIRCRAFT IN AREA.
UNMARKED & UNLIGHTED POWER POLES/LINES NW/SE OF RWY 03/21.
ARPT IS A RESIDENTIAL AIRPARK; AUTO TRAFFIC IS ON & ACROSS RWYS & TWYS.
OCNL LIVESTOCK ON AND INVOF ACFT MOVEMENT AREAS.
RY 03/21 OBSTACLE FREE AREA LIMITED TO 96 FT EITHER SIDE OF RY CNTRLN.
NO LINE OF SIGHT BTWN RY ENDS.
ULTRALIGHT ACTIVITY ON AND IN VICINTY OF AIRPORT.
FOR CD CTC LAS VEGAS APCH AT 725-200-4432.

Instrument Procedures

There are no published instrument procedures at 3L2.

Some nearby airports with instrument procedures:

KHND - Henderson Executive Airport (26 nm NE)
KLAS - Harry Reid International Airport (29 nm NE)
KVGT - North Las Vegas Airport (33 nm NE)
KBVU - Boulder City Municipal Airport (38 nm E)
KLSV - Nellis Air Force Base (39 nm NE)
 
Loc | Ops | Rwys | IFR | FBO | Links
Com | Nav | Svcs | Stats | Notes
Area around 3L2 (Sky Ranch Airport)
 
Road maps at: MapQuest Bing Google
 
Aerial photo
WARNING: Photo may not be current or correct
Aerial photo of 3L2 (Sky Ranch Airport)
Photo by Greg Tarasoff

Do you have a better or more recent aerial photo of Sky Ranch Airport that you would like to share? If so, please send us your photo.

 
Sectional chart

 
Airport distance calculator
Flying to Sky Ranch Airport? Find the distance to fly.

From to 3L2

Sunrise and sunset
Times for 25-Jul-2021
 Local
(UTC-7)
 Zulu
(UTC)
Morning civil twilight05:1712:17
Sunrise05:4612:46
Sunset19:5202:52
Evening civil twilight20:2103:21

Current date and time
Zulu (UTC)  26-Jul-2021 01:21:54
Local (UTC-7)  25-Jul-2021 18:21:54
 
METAR
KHND 
27nm NE 
260056Z 10008KT 10SM CLR 38/16 A2984 RMK AO2 SLP086 T03780161
KLAS 
29nm NE 
260056Z VRB04KT 10SM FEW120 FEW150 SCT250 38/14 A2980 RMK AO2 SLP061 CB DSNT SE T03780144
KVGT 
32nm NE 
260053Z 10005KT 10SM CLR 38/15 A2979 RMK AO2 SLP071 T03780150
KBVU 
38nm E 
260055Z AUTO 16007G12KT 10SM CLR 37/14 A2981 RMK AO2 LTG DSNT NE AND SE
KLSV 
39nm NE 
260056Z AUTO 13007KT 10SM CLR 38/15 A2977 RMK AO2 SLP053 T03800145 $
KINS 
47nm N 
260056Z AUTO 09007KT 10SM CLR 36/13 A2986 RMK AO2 SLP059 T03580127 $
TAF
KHND 
27nm NE 
251730Z 2518/2618 VRB05KT P6SM BKN150 FM251900 13008KT P6SM FEW060 FEW110 BKN150 FM260300 17010G18KT P6SM FEW050 BKN080 FM261200 17008KT P6SM SCT050 OVC150
KLAS 
29nm NE 
252047Z 2521/2624 08010G18KT P6SM FEW100 FEW200 FM260300 15013G23KT P6SM SCT100 SCT200 FM261100 20008KT P6SM SCT050 BKN130 FM262000 15010KT P6SM SCT080 BKN120
KVGT 
32nm NE 
251730Z 2518/2618 09008KT P6SM FEW150 SCT250 FM252000 15010G18KT P6SM FEW060 FEW100 BKN150 FM260500 12008KT P6SM FEW050 BKN080 FM261200 08008KT P6SM FEW050 OVC150
NOTAMs
Click for the latest NOTAMs
NOTAMs are issued by the DoD/FAA and will open in a separate window not controlled by AirNav.

 

 
 

Would you like to see your business listed on this page?

 If your business provides an interesting product or service to pilots, flight crews, aircraft, or users of the Sky Ranch Airport, you should consider listing it here.  To start the listing process, click on the button below
 
Add a business
 

Other Pages about Sky Ranch Airport

Update a link
 
Copyright © AirNav, LLC. All rights reserved. Privacy Policy  Contact